Location: Gull Harbor
(47.1000°N, 122.9000°W)
Time: 16:23:15
(UTC-08:00)

BlueWalker 3 - Visible Passes

Search period start: 30 November 2023 00:00
Search period end: 10 December 2023 00:00
Orbit: 489 x 504 km, 53.2° (Epoch: 29 November)

Date Brightness Start Highest point End Pass type
(mag) Time Alt. Az. Time Alt. Az. Time Alt. Az.
30 Nov 4.2 04:38:31 23° ENE 04:38:31 23° ENE 04:40:16 10° E visible
30 Nov 1.9 06:13:04 23° WNW 06:15:21 80° SSW 06:19:09 10° SE visible
01 Dec 4.9 04:16:56 14° ENE 04:16:56 14° ENE 04:17:41 10° E visible
01 Dec 1.8 05:51:30 41° WNW 05:52:44 81° SSW 05:56:34 10° SE visible
02 Dec 1.7 05:29:58 79° WSW 05:30:07 82° SSW 05:33:57 10° SE visible
03 Dec 2.7 05:08:28 48° SE 05:08:28 48° SE 05:11:19 10° SE visible
03 Dec 3.9 06:43:02 10° W 06:45:21 16° SW 06:47:40 10° SSW visible
04 Dec 4.0 04:47:00 24° SE 04:47:00 24° SE 04:48:39 10° SE visible
04 Dec 3.8 06:21:35 14° WSW 06:22:42 16° SW 06:25:03 10° S visible
05 Dec 5.0 04:25:36 12° ESE 04:25:36 12° ESE 04:25:59 10° ESE visible
05 Dec 3.8 06:00:11 16° SW 06:00:11 16° SW 06:02:25 10° S visible
06 Dec 4.2 05:38:50 13° SSW 05:38:50 13° SSW 05:39:46 10° S visible
